| time (UTC) | temp C | wind direction | speed KPH | gust KPH | rain 1hr cm | rain 24hr cm | rain mn cm | humidity % | barometer mb |
| 20260508181632 | 22 | 186 | 17.7 | 29.0 | 0.00 | 0.00 | 0.00 | 60 | 1015.8 |
| 20260508174601 | 21 | 214 | 17.7 | 30.6 | 0.00 | 0.00 | 0.00 | 61 | 1016.3 |
| 20260508173051 | 21 | 198 | 20.9 | 32.2 | 0.00 | 0.00 | 0.00 | 63 | 1016.5 |
| 20260508171549 | 21 | 210 | 17.7 | 29.0 | 0.00 | 0.00 | 0.00 | 63 | 1016.8 |
| 20260508170045 | 20 | 205 | 20.9 | 35.4 | 0.00 | 0.00 | 0.00 | 61 | 1017.0 |
| 20260508164543 | 20 | 180 | 17.7 | 32.2 | 0.00 | 0.00 | 0.00 | 63 | 1017.2 |
| 20260508163042 | 20 | 186 | 19.3 | 33.8 | 0.00 | 0.00 | 0.00 | 64 | 1017.4 |
| 20260508161538 | 20 | 196 | 25.7 | 35.4 | 0.00 | 0.00 | 0.00 | 63 | 1017.5 |
| 20260508160034 | 20 | 209 | 16.1 | 25.7 | 0.00 | 0.00 | 0.00 | 68 | 1017.6 |
| 20260508154532 | 19 | 170 | 16.1 | 24.1 | 0.00 | 0.00 | 0.00 | 68 | 1017.7 |
| 20260508153040 | 18 | 194 | 19.3 | 27.4 | 0.00 | 0.00 | 0.00 | 69 | 1018.0 |
| 20260508151529 | 18 | 188 | 16.1 | 27.4 | 0.00 | 0.00 | 0.00 | 71 | 1018.2 |
| 20260508150022 | 17 | 203 | 14.5 | 24.1 | 0.00 | 0.00 | 0.00 | 73 | 1018.4 |
| 20260508144519 | 17 | 179 | 11.3 | 24.1 | 0.00 | 0.00 | 0.00 | 76 | 1018.7 |
| 20260508143022 | 16 | 190 | 12.9 | 20.9 | 0.00 | 0.00 | 0.00 | 77 | 1018.7 |
| 20260508141513 | 16 | 190 | 14.5 | 22.5 | 0.00 | 0.00 | 0.00 | 77 | 1018.8 |
| 20260508140010 | 15 | 188 | 12.9 | 22.5 | 0.00 | 0.00 | 0.00 | 79 | 1019.1 |
| 20260508134507 | 15 | 188 | 12.9 | 22.5 | 0.00 | 0.00 | 0.00 | 80 | 1019.0 |
| 20260508133007 | 14 | 180 | 11.3 | 16.1 | 0.00 | 0.00 | 0.00 | 81 | 1019.2 |
| 20260508131502 | 13 | 178 | 11.3 | 16.1 | 0.00 | 0.00 | 0.00 | 84 | 1019.2 |
| 20260508130058 | 13 | 185 | 11.3 | 16.1 | 0.00 | 0.00 | 0.00 | 85 | 1019.1 |
| 20260508124553 | 12 | 178 | 9.7 | 14.5 | 0.00 | 0.00 | 0.00 | 86 | 1019.1 |
| 20260508123056 | 12 | 197 | 11.3 | 16.1 | 0.00 | 0.00 | 0.00 | 87 | 1019.1 |
| 20260508121554 | 11 | 212 | 4.8 | 12.9 | 0.00 | 0.00 | 0.00 | 89 | 1019.0 |
| 20260508120052 | 11 | 209 | 6.4 | 12.9 | 0.00 | 0.00 | 0.00 | 88 | 1018.8 |
| 20260508114548 | 10 | 186 | 6.4 | 9.7 | 0.00 | 0.00 | 0.00 | 88 | 1018.6 |
| 20260508113050 | 10 | 197 | 6.4 | 9.7 | 0.00 | 0.00 | 0.00 | 89 | 1018.6 |
| 20260508111548 | 10 | 173 | 4.8 | 6.4 | 0.00 | 0.00 | 0.00 | 88 | 1018.1 |
| 20260508110047 | 10 | 171 | 1.6 | 6.4 | 0.00 | 0.00 | 0.00 | 88 | 1017.7 |
| 20260508104541 | 10 | 167 | 3.2 | 8.0 | 0.00 | 0.00 | 0.00 | 86 | 1017.7 |
| 20260508103041 | 10 | 167 | 4.8 | 6.4 | 0.00 | 0.00 | 0.00 | 85 | 1017.7 |
| 20260508101539 | 10 | 177 | 3.2 | 8.0 | 0.00 | 0.00 | 0.00 | 85 | 1017.8 |
| 20260508100037 | 10 | 182 | 3.2 | 6.4 | 0.00 | 0.00 | 0.00 | 86 | 1017.8 |
| 20260508094538 | 10 | 198 | 4.8 | 8.0 | 0.00 | 0.00 | 0.00 | 86 | 1018.0 |
| 20260508093035 | 10 | 201 | 4.8 | 8.0 | 0.00 | 0.00 | 0.00 | 86 | 1017.9 |
| 20260508091533 | 10 | 197 | 4.8 | 8.0 | 0.00 | 0.00 | 0.00 | 86 | 1018.0 |
| 20260508090034 | 11 | 175 | 1.6 | 4.8 | 0.00 | 0.00 | 0.00 | 85 | 1017.9 |
| 20260508084530 | 11 | 175 | 3.2 | 6.4 | 0.00 | 0.00 | 0.00 | 84 | 1018.1 |
| 20260508083029 | 11 | 175 | 4.8 | 8.0 | 0.00 | 0.00 | 0.00 | 84 | 1018.1 |
| 20260508081533 | 11 | 171 | 0.0 | 4.8 | 0.00 | 0.00 | 0.00 | 85 | 1018.2 |
| 20260508080026 | 11 | 171 | 1.6 | 6.4 | 0.00 | 0.00 | 0.00 | 85 | 1018.5 |
| 20260508074524 | 11 | 192 | 1.6 | 8.0 | 0.00 | 0.00 | 0.00 | 83 | 1018.5 |
| 20260508073024 | 11 | 187 | 4.8 | 8.0 | 0.00 | 0.00 | 0.00 | 84 | 1018.6 |
| 20260508071528 | 11 | 181 | 4.8 | 6.4 | 0.00 | 0.00 | 0.00 | 84 | 1018.8 |
| 20260508070020 | 11 | 180 | 4.8 | 6.4 | 0.00 | 0.00 | 0.00 | 85 | 1019.0 |
| 20260508064521 | 11 | 180 | 3.2 | 6.4 | 0.00 | 0.00 | 0.00 | 85 | 1018.9 |
| 20260508063019 | 11 | 174 | 6.4 | 8.0 | 0.00 | 0.00 | 0.00 | 84 | 1019.0 |
| 20260508061521 | 12 | 172 | 3.2 | 6.4 | 0.00 | 0.00 | 0.00 | 82 | 1019.0 |
| 20260508060015 | 12 | 172 | 1.6 | 4.8 | 0.00 | 0.00 | 0.00 | 82 | 1019.1 |
| 20260508054516 | 12 | 172 | 1.6 | 4.8 | 0.00 | 0.00 | 0.00 | 82 | 1018.9 |
| 20260508053011 | 12 | 169 | 1.6 | 4.8 | 0.00 | 0.00 | 0.00 | 82 | 1019.0 |
| 20260508051517 | 12 | 168 | 1.6 | 4.8 | 0.00 | 0.00 | 0.00 | 83 | 1019.1 |
| 20260508050010 | 12 | 173 | 1.6 | 6.4 | 0.00 | 0.00 | 0.00 | 82 | 1018.9 |
| 20260508044505 | 12 | 167 | 1.6 | 4.8 | 0.00 | 0.00 | 0.00 | 81 | 1019.0 |
| 20260508043004 | 12 | 155 | 1.6 | 4.8 | 0.00 | 0.00 | 0.00 | 80 | 1019.1 |
| 20260508041503 | 12 | 150 | 4.8 | 8.0 | 0.00 | 0.00 | 0.00 | 80 | 1018.9 |
| 20260508040008 | 12 | 156 | 3.2 | 4.8 | 0.00 | 0.00 | 0.00 | 80 | 1018.8 |
| 20260508034502 | 13 | 162 | 4.8 | 8.0 | 0.00 | 0.00 | 0.00 | 80 | 1019.0 |
| 20260508033004 | 13 | 148 | 3.2 | 6.4 | 0.00 | 0.00 | 0.00 | 80 | 1019.2 |
| 20260508031501 | 13 | 138 | 1.6 | 4.8 | 0.00 | 0.00 | 0.00 | 79 | 1019.1 |
| 20260508030001 | 13 | 137 | 4.8 | 8.0 | 0.00 | 0.00 | 0.00 | 79 | 1018.9 |
| 20260508024500 | 13 | 141 | 3.2 | 8.0 | 0.00 | 0.00 | 0.00 | 78 | 1018.9 |
| 20260508023100 | 14 | 140 | 4.8 | 8.0 | 0.00 | 0.00 | 0.00 | 77 | 1018.7 |
| 20260508021559 | 14 | 138 | 4.8 | 8.0 | 0.00 | 0.00 | 0.00 | 77 | 1018.5 |
| 20260508020059 | 15 | 137 | 3.2 | 6.4 | 0.00 | 0.00 | 0.00 | 75 | 1018.4 |
| 20260508014557 | 15 | 133 | 4.8 | 8.0 | 0.00 | 0.00 | 0.00 | 72 | 1018.1 |
| 20260508013056 | 15 | 161 | 3.2 | 4.8 | 0.00 | 0.00 | 0.00 | 71 | 1018.2 |
| 20260508011605 | 15 | 163 | 4.8 | 8.0 | 0.00 | 0.00 | 0.00 | 69 | 1018.2 |
| 20260508010054 | 16 | 155 | 3.2 | 4.8 | 0.00 | 0.00 | 0.00 | 65 | 1018.2 |
| 20260508004555 | 17 | 142 | 4.8 | 6.4 | 0.00 | 0.00 | 0.00 | 60 | 1018.1 |
| 20260508003050 | 17 | 140 | 3.2 | 6.4 | 0.00 | 0.00 | 0.00 | 57 | 1018.0 |
| 20260508001550 | 18 | 144 | 1.6 | 6.4 | 0.00 | 0.00 | 0.00 | 52 | 1018.0 |
| 20260508000049 | 18 | 136 | 3.2 | 6.4 | 0.00 | 0.00 | 0.00 | 52 | 1018.0 |
| 20260507234558 | 18 | 111 | 6.4 | 14.5 | 0.00 | 0.00 | 0.00 | 50 | 1017.9 |
| 20260507233047 | 18 | 148 | 3.2 | 8.0 | 0.00 | 0.00 | 0.00 | 50 | 1017.9 |
| 20260507231551 | 18 | 121 | 3.2 | 11.3 | 0.00 | 0.00 | 0.00 | 49 | 1017.9 |
| 20260507230050 | 19 | 134 | 4.8 | 11.3 | 0.00 | 0.00 | 0.00 | 49 | 1017.9 |
| 20260507224545 | 19 | 57 | 3.2 | 8.0 | 0.00 | 0.00 | 0.00 | 49 | 1018.2 |
| 20260507223045 | 19 | 66 | 0.0 | 6.4 | 0.00 | 0.00 | 0.00 | 48 | 1018.2 |
| 20260507221541 | 19 | 156 | 1.6 | 4.8 | 0.00 | 0.00 | 0.00 | 50 | 1018.2 |
| 20260507220039 | 18 | 186 | 8.0 | 14.5 | 0.00 | 0.00 | 0.00 | 47 | 1018.3 |
| 20260507214538 | 19 | 179 | 3.2 | 9.7 | 0.00 | 0.00 | 0.00 | 49 | 1018.3 |
| 20260507213036 | 18 | 153 | 1.6 | 12.9 | 0.00 | 0.00 | 0.00 | 48 | 1018.4 |
| 20260507211535 | 18 | 66 | 3.2 | 12.9 | 0.00 | 0.00 | 0.00 | 47 | 1018.4 |
| 20260507210034 | 18 | 76 | 3.2 | 9.7 | 0.00 | 0.00 | 0.00 | 49 | 1018.5 |
| 20260507204531 | 18 | 86 | 0.0 | 11.3 | 0.00 | 0.00 | 0.00 | 45 | 1018.6 |
| 20260507203029 | 18 | 115 | 1.6 | 6.4 | 0.00 | 0.00 | 0.00 | 45 | 1018.7 |
| 20260507201530 | 17 | 348 | 3.2 | 8.0 | 0.00 | 0.00 | 0.00 | 46 | 1018.8 |
| 20260507200041 | 18 | 227 | 3.2 | 6.4 | 0.00 | 0.00 | 0.00 | 45 | 1019.0 |
| 20260507194525 | 18 | 360 | 6.4 | 14.5 | 0.00 | 0.00 | 0.00 | 48 | 1019.2 |
| 20260507193023 | 17 | 86 | 8.0 | 14.5 | 0.00 | 0.00 | 0.00 | 47 | 1019.3 |
| 20260507191522 | 17 | 84 | 4.8 | 14.5 | 0.00 | 0.00 | 0.00 | 49 | 1019.4 |
| 20260507190022 | 17 | 76 | 6.4 | 12.9 | 0.00 | 0.00 | 0.00 | 46 | 1019.4 |
| 20260507184519 | 17 | 65 | 6.4 | 14.5 | 0.00 | 0.00 | 0.00 | 49 | 1019.5 |
| 20260507183032 | 17 | 18 | 1.6 | 17.7 | 0.00 | 0.00 | 0.00 | 53 | 1019.6 |